Regional Weather Roundup
Issued by NWS

Home | Current Version | Previous Version | Text Only | Print | Product List | Glossary On
Versions: 1 2 3 4 5 6 7 8 9 10 11 12 13 14 15 16 17 18 19 20 21 22 23 24 25 26 27 28 29 30 31 32 33 34 35 36 37 38 39 40 41 42 43 44 45 46 47 48 49 50
000
ASUS43 KDMX 270607
RWRIA

WEATHER ROUNDUP FOR IOWA
NATIONAL WEATHER SERVICE DES MOINES IA
100 AM CDT SUN JUL 27 2014

NOTE: "FAIR" INDICATES FEW OR NO CLOUDS BELOW 12,000 FEET WITH NO
SIGNIFICANT WEATHER AND/OR OBSTRUCTIONS TO VISIBILITY.

* - THESE STATIONS ARE NOT NWS STATIONS...THUS NOT UNDER NWS
QUALITY CONTROL.  THEY ALSO DO NOT REPORT WEATHER SUCH
AS PRECIPITATION OR FOG.

IAZ001>003-012>014-020>022-031>034-043>046-270700-
   NORTHWEST IOWA

CITY           SKY/WX    TMP DP  RH WIND       PRES   REMARKS
CARROLL *      PTCLDY    66  66 100 W6        29.92S
CHEROKEE *     CLEAR     65  65  99 S3        29.94S
DENISON *      CLOUDY    68  68 100 CALM      29.93S FOG
LE MARS *      CLEAR     66  64  94 CALM      29.96R
ORANGE CITY *  CLEAR     70  63  78 NW7       29.96R
SHELDON *      CLEAR     66  63  88 NW6       29.94S
SIOUX CITY     CLEAR     70  67  90 NW5       29.95S
6HR MIN TEMP:  69; 6HR MAX TEMP:  86; 6HR PCP: TRACE;

SPENCER        CLEAR     68  64  87 W9        29.93R
6HR MIN TEMP:  66; 6HR MAX TEMP:  82;

STORM LAKE *   CLEAR     68  68 100 W8        29.95S
$$

IAZ055>058-069>071-079>083-090>094-270700-
   SOUTHWEST IOWA

CITY           SKY/WX    TMP DP  RH WIND       PRES   REMARKS
ATLANTIC *     CLEAR     72  70  94 N7        29.92R
AUDUBON *      CLEAR     72  68  88 CALM      29.95R
CLARINDA *     CLEAR     73  73 100 N3        29.92R
COUNCIL BLFS * CLEAR     73  73 100 N6        29.93S
CRESTON *      PTCLDY    73  72  94 N5        29.91S
HARLAN  *      CLEAR     70  68  94 N3        29.97R
LAMONI         CLEAR     74  73  97 N5        29.88S FOG
6HR MIN TEMP:  74; 6HR MAX TEMP:  83;

RED OAK *      PTCLDY    73  72  94 NW6       29.92R
SHENANDOAH *   CLEAR     75  73  94 N7        29.92R
$$

IAZ047>049-059>061-072>074-084-270700-
   CENTRAL IOWA

CITY           SKY/WX    TMP DP  RH WIND       PRES   REMARKS
AMES           PTCLDY    73  71  93 NW7       29.89R
6HR MIN TEMP:  69; 6HR MAX TEMP:  83;

ANKENY *       CLEAR     73  72  94 NW7       29.87S
CHARITON *     CLOUDY    73  73 100 N5        29.88R
DES MOINES     CLEAR     74  70  87 W3        29.88R
6HR MIN TEMP:  73; 6HR MAX TEMP:  83;

GRINNELL*      FOG       68  68 100 NW5       29.88S VSB 1
KNOXVILLE *    CLOUDY    72  72 100 CALM      29.86S FOG
MARSHALLTOWN   CLEAR     70  69  97 W5        29.87S FOG
6HR MIN TEMP:  69; 6HR MAX TEMP:  82;

PELLA *        PTCLDY    71  70  97 CALM      29.87S FOG
PERRY *          N/A     70  70 100 NW5       29.91R FOG
$$

IAZ004>006-015-016-023>025-035-036-270700-
   NORTH CENTRAL IOWA

CITY           SKY/WX    TMP DP  RH WIND       PRES   REMARKS
ALGONA *       CLEAR     68  66  94 W8        29.90F
CLARION *      CLEAR     66  66 100 W6        29.90S
FORT DODGE *   CLEAR     66  64  94 CALM      29.92S
MASON CITY     CLEAR     68  65  90 W8        29.89F
6HR MIN TEMP:  68; 6HR MAX TEMP:  83;

FOREST CITY *  PTCLDY    68  64  88 E3        29.88F
IOWA FALLS *     N/A     70  68  94 W6        29.90S
$$

IAZ007>011-017>019-026>030-037>042-050>054-066-270700-
   NORTHEAST IOWA

CITY           SKY/WX    TMP DP  RH WIND       PRES   REMARKS
CEDAR RAPIDS   CLEAR     68  67  96 W5        29.84S FOG
6HR MIN TEMP:  68; 6HR MAX TEMP:  81;

CHARLES CITY * CLEAR     70  68  94 W6        29.87S
CLINTON *        N/A     68  64  88 W3        29.85F VSB<1/4
DECORAH *      CLEAR     70  68  94 W3        29.84S
DUBUQUE        PTCLDY    66  66 100 SW6       29.84S
6HR MIN TEMP:  66; 6HR MAX TEMP:  81;

MONTICELLO *   FOG       68  68 100 CALM      29.83S VSB 1/4
OELWEIN *      CLEAR     68  68 100 NW7       29.86S
WATERLOO       CLEAR     68  67  96 NW5       29.84S
6HR MIN TEMP:  66; 6HR MAX TEMP:  82;

$$

IAZ064-065-067-068-078-270700-
   EAST CENTRAL IOWA

CITY           SKY/WX    TMP DP  RH WIND       PRES   REMARKS
DAVENPORT      FOG       65  64  97 SW3       29.83F VSB 1/4
6HR MIN TEMP:  63; 6HR MAX TEMP:  80;

IOWA CITY      PTCLDY    69  69 100 SW5       29.86R FOG
6HR MIN TEMP:  68; 6HR MAX TEMP:  80;

MT. PLEASANT * CLOUDY    72  71  96 CALM      29.86R FOG
MUSCATINE *    FOG       70  68  94 CALM      29.84S VSB 3/4
QUAD CITIES    CLEAR     66  66 100 SW5       29.82F FOG
6HR MIN TEMP:  67; 6HR MAX TEMP:  79;

$$

IAZ062-063-075>077-085>089-095>099-270700-
   SOUTHEAST IOWA

CITY           SKY/WX    TMP DP  RH WIND       PRES   REMARKS
BURLINGTON     FOG       73  73 100 CALM      29.85S VSB 3/4
6HR MIN TEMP:  72; 6HR MAX TEMP:  79;

FAIRFIELD *    CLOUDY    73  72  94 CALM      29.86S FOG
FORT MADISON * FOG       72  72 100 CALM      29.86S VSB 1/4
KEOKUK *       CLOUDY    72  70  94 CALM      29.84F
OSKALOOSA *      N/A     71  69  96 CALM      29.86F FOG
CENTERVILLE *  CLOUDY    73  73 100 CALM      29.88F FOG
OTTUMWA        CLOUDY    75  72  90 NE3       29.86S
6HR MIN TEMP:  74; 6HR MAX TEMP:  80;

WASHINGTON *   CLEAR     70  70 100 CALM      29.86R FOG
$$

ABBREVIATIONS USED IN REMARKS
   TC - TEMPERATURES IN CELSIUS
  WCI - WIND CHILL INDEX
   HX - HEAT INDEX
  VSB - VISIBILITY
$$



USA.gov is the U.S. government's official web portal to all federal, state and local government web resources and services.